Weather History for KGGG - August, 2013

Change the Weather History Date:

Wednesday, August 28, 2013

  Actual Average Record
Temperature  
Mean Temperature 88 °F 82 °F  
Max Temperature 101 °F 93 °F 108 °F (1943)
Min Temperature 74 °F 70 °F 56 °F (1992)
Degree Days  
Heating Degree Days 0 0  
Month to date heating degree days 0 0  
Since 1 June heating degree days 0 0  
Since 1 July heating degree days 0 0  
Cooling Degree Days 23 16  
Month to date cooling degree days 567 503  
Year to date cooling degree days 2023 1893  
Since 1 June cooling degree days 1635 1514  
Growing Degree Days 37 (Base 50)    
Moisture  
Dew Point 66 °F    
Average Humidity 55    
Maximum Humidity 79    
Minimum Humidity 31    
Precipitation  
Precipitation 0.00 in 0.09 in 2.20 in (1940)
Month to date precipitation 1.06 2.70  
Year to date precipitation 20.33 30.33  
Snow  
Snow 0.00 in - - ()
Month to date snowfall 0.0  
Since 1 June snowfall 0.0  
Since 1 July snowfall 0.0  
Snow Depth 0.00 in    
Sea Level Pressure  
Sea Level Pressure 30.01 in    
Wind  
Wind Speed 2 mph (North)    
Max Wind Speed 12 mph    
Max Gust Speed 23 mph    
Visibility 10 miles    
Events      
T = Trace of Precipitation, MM = Missing Value Source: NWS Daily Summary

Daily Weather History Graph

Daily Weather History Graph

Search for Another Location

Airport or City:

Trip Planner

Search our weather history database for the weather conditions in past years. The results will help you decide how hot, cold, wet, or windy it might be!

Date:

Astronomy

Aug. 28, 2013 Rise Set
Actual Time 6:51 AM CDT 7:47 PM CDT
Civil Twilight 6:26 AM CDT 8:13 PM CDT
Nautical Twilight 5:56 AM CDT 8:42 PM CDT
Astronomical Twilight 5:25 AM CDT 9:13 PM CDT
Moon 12:08 AM CDT (8/28) 2:16 PM CDT (8/28)
Length of Visible Light 13h 46m
Length of Day
12h 56m
Waning Gibbous, 47% of the Moon is Illuminated
Aug 28
Waning Gibbous
Sep 5
New
Sep 12
First Quarter
Sep 19
Full
Sep 26
Last Quarter

Hourly Weather History & Observations

Time (CDT) Temp. Heat Index Dew Point Humidity Pressure Visibility Wind Dir Wind Speed Gust Speed Precip Events Conditions
12:53 AM 78.1 °F - 66.9 °F 68% 30.01 in 10.0 mi Calm Calm - N/A   Clear
1:53 AM 75.0 °F - 66.9 °F 76% 30.00 in 10.0 mi Calm Calm - N/A   Clear
2:53 AM 75.0 °F - 66.9 °F 76% 30.01 in 10.0 mi Calm Calm - N/A   Mostly Cloudy
3:53 AM 78.1 °F - 66.9 °F 68% 30.01 in 10.0 mi Calm Calm - N/A   Overcast
4:53 AM 78.1 °F - 66.9 °F 68% 30.02 in 10.0 mi Calm Calm - N/A   Overcast
5:53 AM 78.1 °F - 68.0 °F 71% 30.03 in 10.0 mi Calm Calm - N/A   Overcast
6:53 AM 75.9 °F - 68.0 °F 76% 30.04 in 10.0 mi Calm Calm - N/A   Mostly Cloudy
7:53 AM 79.0 °F - 68.0 °F 69% 30.06 in 10.0 mi Calm Calm - N/A   Mostly Cloudy
8:53 AM 82.0 °F 84.9 °F 68.0 °F 62% 30.07 in 10.0 mi Calm Calm - N/A   Overcast
9:53 AM 86.0 °F 88.8 °F 66.9 °F 53% 30.08 in 10.0 mi NW 9.2 mph - N/A   Overcast
10:53 AM 90.0 °F 93.6 °F 68.0 °F 48% 30.08 in 10.0 mi Variable 5.8 mph - N/A   Clear
11:53 AM 93.0 °F 96.4 °F 66.9 °F 42% 30.07 in 10.0 mi Variable 4.6 mph - N/A   Partly Cloudy
12:53 PM 96.1 °F 99.3 °F 66.0 °F 37% 30.04 in 10.0 mi NW 5.8 mph - N/A   Scattered Clouds
1:53 PM 93.9 °F 95.6 °F 64.0 °F 37% 30.02 in 10.0 mi Variable 5.8 mph - N/A   Scattered Clouds
2:53 PM 97.0 °F 98.3 °F 63.0 °F 32% 30.00 in 10.0 mi Calm Calm - N/A   Scattered Clouds
3:53 PM 99.0 °F 100.5 °F 63.0 °F 30% 29.98 in 10.0 mi Calm Calm - N/A   Clear
4:53 PM 98.1 °F 99.1 °F 62.1 °F 30% 29.96 in 10.0 mi Calm Calm - N/A   Scattered Clouds
5:53 PM 97.0 °F 97.8 °F 62.1 °F 31% 29.96 in 10.0 mi North 3.5 mph - N/A   Clear
6:53 PM 97.0 °F 98.3 °F 63.0 °F 32% 29.95 in 10.0 mi NW 4.6 mph - N/A   Clear
7:53 PM 91.9 °F 93.3 °F 64.0 °F 39% 29.96 in 10.0 mi Calm Calm - N/A   Partly Cloudy
8:53 PM 88.0 °F 89.3 °F 64.0 °F 45% 29.97 in 10.0 mi Calm Calm - N/A   Clear
9:53 PM 86.0 °F 87.6 °F 64.9 °F 49% 29.99 in 10.0 mi Calm Calm - N/A   Scattered Clouds
10:53 PM 87.1 °F 89.2 °F 66.0 °F 49% 29.99 in 10.0 mi East 5.8 mph - N/A   Overcast
11:53 PM 87.1 °F 88.9 °F 64.9 °F 48% 29.99 in 10.0 mi ESE 6.9 mph - N/A   Partly Cloudy